Find Local Weather

World > North America > United States > Washington

Blaine, Washington Regional Weather

Lat: 48.99N, Lon: 122.76W
Wx Zone: WAZ503
Feedback
Expires:201805270200;;582255
ASUS46 KSEW 270110
RWRWA 

WASHINGTON REGIONAL WEATHER ROUNDUP
NATIONAL WEATHER SERVICE SEATTLE WA
600 PM PDT SAT MAY 26 2018

NOTE:"FAIR" INDICATES FEW OR NO CLOUDS BELOW 12,000 FEET WITH NO 
SIGNIFICANT WEATHER AND/OR OBSTRUCTIONS TO VISIBILITY.


WAZ001-503-506-510-514-515-270200-
NORTH INTERIOR
  
CITY           SKY/WX    TMP DP  RH WIND       PRES   REMARKS
BELLINGHAM     CLOUDY    62  46  55 S12G20    30.18S                  
FRIDAY HARBOR  CLOUDY    60  41  49 S13       30.19R                  
EASTSOUND      PTSUNNY   63  43  48 S10       30.16S                  
PORT ANGELES   CLOUDY    56  43  61 NW9       30.22S                  
EDIZ HOOK      MOCLDY    56  42  61 W15       30.21S                  
PORT TOWNSEND  FAIR      59  46  63 NW12      30.21F                  
NAS WHIDBEY    CLOUDY    59  46  62 SW13      30.24S                  
ARLINGTON      PTSUNNY   62  47  57 NW12      30.21R                  
BURLINGTON     SUNNY     61  46  59 SW7       30.21S                  
$$
 

SKY/WX - Weather  TMP - Temperature  DP - Dewpoint  RH - Relative Humidity
WIND - Wind Direction/Speed PRES - Barometric Pressure